sat.trackr.live / text

‹ back to catalog

ABS-3A

NORAD 40424 · 2015-010A

PAYLOAD ACTIVE UNKNOWN

§ Identity

Operator
Country
ABS
Launch date
2015-03-02
Launch site
AFETR
Launch vehicle
Mass (kg)
RCS (m²)
6.02

Purposes: comms

External: N2YO · Heavens-Above · Gunter

§ Orbital elements

Epoch: 2026-05-25T03:43:47.341056Z

Period
1,436.13 min
Inclination
0.0114°
Eccentricity
0.0001638
Mean motion
1.00269634 rev/d
Perigee alt
35,780.3 km
Apogee alt
35,794.1 km
Semi-major
42,165.3 km
B*
0.0000e+0
RAAN
313.6149°
Arg perigee
66.5091°
Mean anomaly
275.5856°
Rev number
4,114

§ Raw data

ABS-3A1 40424U 15010A   26145.15540904 -.00000029  00000+0  00000+0 0  99972 40424   0.0114 313.6149 0001638  66.5091 275.5856  1.00269634 41143

JSON: /api/v1/satellites/40424 · /tle

For live sub-satellite position, see the globe view (requires WebGL).

§ Visibility from observer

Set your observer location to see the next 7 days of passes ≥ 10°. The values pass through the URL so the page stays shareable.

No JS? Fill the form by hand. The geolocation button needs JavaScript.